Regional Weather Roundup
Issued by NWS Sioux Falls, SD

Home | Current Version | Previous Version | Text Only | Print | Product List | Glossary On
Versions: 1 2 3 4 5 6 7 8 9 10 11 12 13 14 15 16 17 18 19 20 21 22 23 24 25 26 27 28 29 30 31 32 33 34 35 36 37 38 39 40 41 42 43 44 45 46 47 48 49 50
000
ASUS43 KFSD 032110
RWRFSD

WEATHER ROUNDUP FOR SE SOUTH DAKOTA/SW MINNESOTA/NW IOWA
NATIONAL WEATHER SERVICE SIOUX FALLS SD
400 PM CDT TUE MAY 03 2016

NOTE: "FAIR" INDICATES FEW OR NO CLOUDS BELOW 12,000 FEET WITH NO
SIGNIFICANT WEATHER AND OR OBSTRUCTIONS TO VISIBILITY.


SDZ038>040-050-052>070-032200-
SOUTHEAST SOUTH DAKOTA

CITY           SKY/WX    TMP DP  RH WIND       PRES   REMARKS
BROOKINGS      MOSUNNY   71  42  35 NW16G24   29.84F
CHAMBERLAIN    SUNNY     73  46  38 NW15G22   29.96F
HURON          SUNNY     75  42  30 NW18G28   29.87F
MADISON        FAIR      68  41  37 NW18G29   29.88F
MITCHELL       SUNNY     72  47  40 NW20G26   29.91F
SIOUX FALLS    PTSUNNY   70  41  34 NW18G30   29.88F
WINNER         FAIR      72  42  34 NW18G25   30.00F
YANKTON        MOSUNNY   68  43  40 NW20G30   29.93F
$$

MNZ071-072-080-081-089-090-097-098-032200-
SOUTHWEST MINNESOTA

CITY           SKY/WX    TMP DP  RH WIND       PRES   REMARKS
FAIRMONT       CLOUDY    68  43  40 W23G31    29.81F
JACKSON        MOSUNNY   66  41  39 W20G29    29.84F
LUVERNE        MOSUNNY   70  36  28 NW15G29   29.87F
MARSHALL       CLOUDY    71  40  32 NW21      29.80F
MONTEVIDEO     MOSUNNY   75  41  29 NW13G22   29.78F
PIPESTONE      MOSUNNY   70  36  28 NW15      29.85F
REDWOOD FALLS  SUNNY     73  37  27 NW15G28   29.76F
TRACY          PTSUNNY   72  40  30 NW22G29   29.82F
WINDOM         MOSUNNY   72  37  28 W23G29    29.81F
WORTHINGTON    MOSUNNY   67  43  41 W26G32    29.85F
$$

IAZ001>003-012>014-020>022-031-032-NEZ013-014-SDZ071-032200-
NORTHWEST IOWA

CITY           SKY/WX    TMP DP  RH WIND       PRES   REMARKS
CHEROKEE       CLOUDY    66  45  46 W16G24    29.90F
DENISON        PTSUNNY   66  45  45 W16G23    29.91F
ESTHERVILLE    MOSUNNY   65  46  50 W26G32    29.85F
LE MARS        MOSUNNY   68  45  42 W18G26    29.92F
ORANGE CITY    CLOUDY    66  48  52 NW24G32   29.90F
SHELDON        MOSUNNY   68  45  42 W20G28    29.87F
SIOUX CITY     MOSUNNY   69  47  45 NW20G25   29.92F
SPENCER        CLOUDY    68  44  42 W24G32    29.87F
STORM LAKE     PTSUNNY   66  43  42 W24G32    29.90F
$$

ABBREVIATIONS USED IN REMARKS
   TC - TEMPERATURE IN CELSIUS
  WCI - WIND CHILL INDEX
   HX - HEAT INDEX
  VSB - VISIBILITY





USA.gov is the U.S. government's official web portal to all federal, state and local government web resources and services.